User: anonymous   Login
Location: Ash Swamp
(41.5170°N, 74.6157°W)
Time: 17:26:12
(UTC+00:00)
Language:

DELTA 2 R/B (1) - Orbit

View from above orbital plane
View from above orbital plane
View from above satellite
View from above satellite

Ground track
Ground track

The orbit data is extracted from the following two-line orbital elements,

1 27665U 03005C   20270.77808510 -.00000121  00000-0 -14157-4 0  9999
2 27665  39.5751 131.9045 0007988 144.4317 261.1983 14.28532506922220
Epoch (UTC): 26 September 2020 18:40:26
Eccentricity: 0.0007988
inclination: 39.5751°
perigee height: 791 km
apogee height: 802 km
right ascension of ascending node: 131.9045°
argument of perigee: 144.4317°
revolutions per day: 14.28532506
mean anomaly at epoch: 261.1983°
orbit number at epoch: 92222

The dashed part of the orbit path shows where the satellite is in the earth's shadow,  

DLR